STARLINK-37142, 68296

Orbit data source: Space-Track

STARLINK-37142, 68296 is a payload satellite owned by SpaceX/Seattle (US) in SSO that was launched on Fri, 20 Mar 2026 UTC via an FALCON 9 launch vehicle from the Air Force Western Test Range (AFWTR). Payload-class satellites include a variety of spacecraft equipped with specific instruments for various scientific and technological missions. These include communications satellites like Starlink; space stations such as the ISS; scientific satellites like the Hubble; Earth observation satellites from companies like Planet Labs, Umbra, and HawkEye 360; GPS; miniature CubeSats for education and research; and military/defense satellites.

Loading next visibility...
Identifier
68296, 2026-057C
Orbit
SSO
Country
Flag of USUS
Related business
Manufacturer
SpaceX/Seattle
Mission
Operational spacecraft
Bus & Motor
STARLINK V2MO, Unknown motor
Mass
575 kg wet, ~530 kg dry
Launch date (UTC)
2026-03-20 (3 months ago)
Launch vehicle
FALCON 9
Launch site
Air Force Western Test Range (AFWTR)
Object type
Payload
Rocket body
Debris
Shape & HBR
Unknown shape, 17.7 m
Radar Cross Section
Large (>1 m²)

Expand to show TLE details & history
Last TLE update: 12 hours ago

TLE from 12 hours ago
0 STARLINK-37142
1 68296U 26057C   26171.33850763  .00015411  00000-0  47844-3 0  9995
2 68296  97.2852 298.1042 0001232  92.1303 268.0081 15.33462722 14395
Epoch: 2026-06-20T08:07Z
TLE epoch observation values (Epoch: 2026-06-20T08:07:27.059Z)
Latitude
0.00001°
Longitude
-92.31311°
Altitude
468.632 km
Speed
7.632 km/s
True Right ascension
19h 52m 25s
True Declination
0° 00' 00"
Sunlit
Object was in full shadow at epoch
Visualization orbit readout
Latitude
Unknown
Longitude
Unknown
Altitude
Unknown
Speed
Unknown
Apparent Right ascension
Unknown
Apparent Declination
Unknown
Sunlit
N/A
Visualization observer readout
Local Sidereal Time
07:18:31
Azimuth
Unknown
Elevation
Unknown
Doppler factor
Unknown
Orbital elements
Apogee altitude
463.276 km
Perigee altitude
461.59 km
Semi-major axis
6,840.57 km
Eccentricity
0.00012
Inclination
97.2852°
RAAN
298.1042°
Arg. of periapsis
92.1303°
True anomaly
267.99399°
Mean anomaly
268.0081°
Eccentric anomaly
268.00105°
Mean motion
3.83623 °/min
Orbital period
93.84 mins
BSTAR
0.00047844
Loading maneuver chart data...
Computing Atmospheric mass density...
Loading historical data...
Loading historical data...
Loading historical data...
Loading historical data...
Loading historical data...
Loading historical data...
Loading historical data...

Documentation

Showing up to 5 results
|